GSAT-7

Last updated on Tue Sep 22 2026 00:03:12 GMT+0000 (Coordinated Universal Time)

1 39234U 13044B 26264.50371741 -.00000081 00000+0 00000+0 0 9999 2 39234 0.3215 86.6856 0005294 165.2005 3.8604 1.00272455 46223
UTC large
Height (km)
Speed (km/s)
/
Latitude / Longitude
Inclination (degrees)
Orbital Period (minutes)
Azimuth
Elevation
Range (km)
Doppler Factor

Next 0 passes for location: London (51.5072 / 0.1276)

No passes found over London.
GSAT-7